OE-11280 Weather Reports


Display with metric or nautical units.
time (UTC)temp
F
wind
direction
speed
MPH
gust
MPH
rain 1hr
in
rain 24hr
in
rain mn
in
humidity
%
barometer
mb
20260903104133 74 139 3.0 5.0 0.00 0.03 0.00 43 1018.5
20260903103520 75 141 3.0 8.0 0.00 0.03 0.00 44 1018.5
20260903102520 73 139 4.0 9.0 0.00 0.03 0.00 48 1018.8
20260903101133 72 142 3.0 7.0 0.00 0.03 0.00 52 1018.9
20260903100520 72 116 4.0 9.0 0.00 0.03 0.00 55 1019.1
20260903095520 71 126 5.0 8.0 0.00 0.03 0.00 57 1019.3
20260903094132 70 141 2.0 6.0 0.00 0.03 0.00 58 1019.6
20260903093520 69 97 2.0 6.0 0.00 0.03 0.00 59 1019.9
20260903091133 66 168 2.0 5.0 0.00 0.03 0.00 61 1021.0
20260903090520 65 199 1.0 4.0 0.00 0.03 0.00 65 1021.2
20260903085520 64 283 1.0 4.0 0.00 0.03 0.00 64 1021.4
20260903084132 63 210 2.0 5.0 0.00 0.03 0.00 69 1021.8
20260903083520 63 200 1.0 4.0 0.00 0.03 0.00 72 1021.9
20260903082520 62 89 2.0 5.0 0.00 0.03 0.00 74 1022.0
20260903081133 61 86 2.0 4.0 0.00 0.03 0.00 76 1022.2
20260903080520 60 332 1.0 4.0 0.00 0.03 0.00 77 1022.3
20260903075520 60 298 2.0 5.0 0.00 0.03 0.00 78 1022.3
20260903074133 60 280 2.0 5.0 0.00 0.03 0.00 80 1022.5
20260903073519 59 200 1.0 4.0 0.00 0.03 0.00 82 1022.7
20260903072519 59 272 1.0 4.0 0.00 0.03 0.00 81 1022.9
20260903071133 58 295 2.0 4.0 0.00 0.03 0.00 81 1023.0
20260903070520 59 342 1.0 3.0 0.00 0.03 0.00 82 1023.0
20260903065520 57 248 1.0 4.0 0.00 0.03 0.00 84 1023.3
20260903064132 57 280 1.0 3.0 0.00 0.03 0.00 87 1023.5
20260903063519 56 169 1.0 4.0 0.00 0.03 0.00 87 1023.6
20260903062520 56 312 2.0 3.0 0.00 0.03 0.00 89 1023.5
20260903061133 55 301 2.0 3.0 0.00 0.03 0.00 91 1023.6
20260903060520 55 336 1.0 3.0 0.00 0.03 0.00 91 1023.9
20260903055519 55 21 2.0 5.0 0.00 0.03 0.00 93 1023.8
20260903054132 54 323 0.0 3.0 0.00 0.03 0.00 94 1023.8
20260903053520 54 271 2.0 4.0 0.00 0.03 0.00 95 1023.7
20260903052520 53 282 3.0 5.0 0.00 0.03 0.00 95 1023.8
20260903051133 53 295 2.0 4.0 0.00 0.03 0.00 95 1023.7
20260903050519 54 282 2.0 4.0 0.00 0.03 0.00 94 1023.7
20260903045520 54 292 2.0 3.0 0.00 0.03 0.00 94 1023.6
20260903044132 54 240 2.0 4.0 0.00 0.03 0.00 94 1023.6
20260903043519 54 287 1.0 3.0 0.00 0.03 0.00 94 1023.6
20260903042520 54 258 2.0 4.0 0.00 0.03 0.00 94 1023.4
20260903041132 54 260 2.0 4.0 0.00 0.03 0.00 94 1023.5
20260903040520 54 301 1.0 2.0 0.00 0.03 0.00 94 1023.3
20260903035520 55 250 2.0 3.0 0.00 0.03 0.00 94 1023.3
20260903034519 55 293 1.0 4.0 0.00 0.03 0.00 94 1023.3
20260903033519 55 320 1.0 3.0 0.00 0.03 0.00 94 1023.2
20260903032520 55 278 2.0 4.0 0.00 0.03 0.00 94 1023.1
20260903031133 55 289 1.0 3.0 0.00 0.03 0.00 94 1023.0
20260903030520 56 298 1.0 3.0 0.00 0.03 0.00 94 1023.0
20260903025520 56 289 1.0 3.0 0.00 0.03 0.00 94 1023.0
20260903024520 56 272 1.0 2.0 0.00 0.03 0.00 94 1023.0
20260903023520 56 304 1.0 4.0 0.00 0.03 0.00 94 1023.1
20260903022520 56 334 2.0 4.0 0.00 0.03 0.00 94 1023.1
20260903021132 56 308 1.0 4.0 0.00 0.03 0.00 95 1023.0
20260903020520 57 277 1.0 5.0 0.00 0.03 0.00 94 1023.0
20260903015520 57 300 1.0 4.0 0.00 0.03 0.00 95 1023.0
20260903014132 57 297 2.0 4.0 0.00 0.03 0.00 94 1023.1
20260903013519 57 271 2.0 3.0 0.00 0.03 0.00 95 1023.0
20260903012519 57 272 1.0 2.0 0.00 0.03 0.00 95 1023.0
20260903011133 57 272 1.0 3.0 0.00 0.03 0.00 95 1023.1
20260903010520 57 272 2.0 4.0 0.00 0.03 0.00 94 1023.0
20260903005520 57 289 2.0 3.0 0.00 0.03 0.00 94 1022.8
20260903004133 58 260 2.0 4.0 0.00 0.03 0.00 94 1022.8
20260903003520 58 268 2.0 3.0 0.00 0.03 0.00 94 1022.8
20260903002520 58 253 1.0 4.0 0.00 0.03 0.00 94 1022.9
20260903001532 58 294 1.0 2.0 0.00 0.03 0.00 93 1022.8
20260903000519 58 289 1.0 3.0 0.00 0.03 0.00 93 1022.7
20260902235519 58 209 1.0 2.0 0.00 0.03 0.00 93 1022.7
20260902234133 58 208 1.0 4.0 0.00 0.03 0.00 93 1022.5
20260902233519 58 216 1.0 6.0 0.00 0.03 0.00 93 1022.6
20260902232519 58 323 0.0 7.0 0.00 0.03 0.00 93 1022.7
20260902231520 58 309 1.0 3.0 0.00 0.03 0.00 93 1022.6
20260902230519 58 164 1.0 4.0 0.00 0.03 0.00 93 1022.4
20260902225520 58 260 1.0 3.0 0.00 0.03 0.00 92 1022.5
20260902224133 59 316 1.0 4.0 0.00 0.03 0.00 93 1022.4
20260902223520 58 289 1.0 3.0 0.00 0.03 0.00 92 1022.5
20260902222520 59 267 2.0 3.0 0.00 0.03 0.00 91 1022.0
20260902221133 59 268 2.0 4.0 0.03 0.03 0.00 92 1022.0
20260902220519 59 336 1.0 3.0 0.03 0.03 0.03 90 1021.9
20260902215520 59 264 2.0 5.0 0.03 0.03 0.03 92 1021.8
20260902214133 60 85 2.0 7.0 0.03 0.03 0.03 91 1021.8
20260902213519 60 213 1.0 6.0 0.03 0.03 0.03 91 1021.7
20260902211133 60 300 5.0 15.0 0.03 0.03 0.03 90 1021.8
20260902210520 60 270 1.0 3.0 0.00 0.00 0.00 87 1021.3
20260902205520 60 239 1.0 3.0 0.00 0.00 0.00 86 1021.2
20260902204134 60 360 0.0 3.0 0.00 0.00 0.00 86 1021.2
20260902203519 60 270 2.0 3.0 0.00 0.00 0.00 86 1021.3
20260902202520 60 264 1.0 2.0 0.00 0.00 0.00 86 1021.3
20260902201133 61 278 1.0 3.0 0.00 0.00 0.00 86 1021.2
20260902200520 61 284 2.0 4.0 0.00 0.00 0.00 83 1021.1
20260902195520 62 252 2.0 3.0 0.00 0.00 0.00 83 1021.1
20260902194133 62 329 0.0 2.0 0.00 0.00 0.00 82 1021.0
20260902193520 62 306 2.0 4.0 0.00 0.00 0.00 83 1020.7
20260902192519 63 286 2.0 5.0 0.00 0.00 0.00 82 1020.5
20260902191133 63 286 1.0 5.0 0.00 0.00 0.00 81 1020.4
20260902190519 63 331 3.0 6.0 0.00 0.00 0.00 81 1020.3
20260902185520 64 359 2.0 4.0 0.00 0.00 0.00 80 1019.7
20260902184133 64 221 1.0 3.0 0.00 0.00 0.00 78 1019.5
20260902183520 65 319 3.0 8.0 0.00 0.00 0.00 78 1019.6
20260902182520 65 320 3.0 9.0 0.00 0.00 0.00 76 1019.3
20260902181133 66 152 1.0 4.0 0.00 0.00 0.00 75 1019.0
20260902180520 66 130 4.0 9.0 0.00 0.00 0.00 74 1018.9
20260902175520 67 116 4.0 10.0 0.00 0.00 0.00 74 1018.5
20260902174133 67 90 4.0 8.0 0.00 0.00 0.00 73 1018.3
20260902173519 68 91 5.0 13.0 0.00 0.00 0.00 69 1017.7
20260902172520 68 109 6.0 11.0 0.00 0.00 0.00 70 1017.5
20260902171133 69 106 7.0 12.0 0.00 0.00 0.00 68 1017.4
20260902170520 70 119 6.0 12.0 0.00 0.00 0.00 66 1017.2
20260902165520 70 128 6.0 11.0 0.00 0.00 0.00 63 1017.2
20260902164133 71 127 6.0 10.0 0.00 0.00 0.00 63 1017.0
20260902163520 71 114 10.0 15.0 0.00 0.00 0.00 63 1016.9
20260902162520 71 122 9.0 15.0 0.00 0.00 0.00 62 1016.8
20260902161133 72 105 8.0 14.0 0.00 0.00 0.00 60 1016.6
20260902160519 73 108 7.0 16.0 0.00 0.00 0.00 59 1016.6
20260902155520 73 108 8.0 13.0 0.00 0.00 0.00 58 1016.5
20260902154133 75 63 7.0 16.0 0.00 0.00 0.00 56 1016.3
20260902153520 74 74 10.0 19.0 0.00 0.00 0.00 56 1016.6
20260902152519 74 89 8.0 14.0 0.00 0.00 0.00 57 1016.5
20260902151133 73 97 8.0 15.0 0.00 0.00 0.00 58 1016.5
20260902150520 73 93 6.0 14.0 0.00 0.00 0.00 58 1016.5
20260902145520 73 110 9.0 16.0 0.00 0.00 0.00 58 1016.6
20260902144133 73 112 9.0 15.0 0.00 0.00 0.00 59 1016.7
20260902143519 73 107 9.0 17.0 0.00 0.00 0.00 58 1016.7
20260902142520 73 111 9.0 18.0 0.00 0.00 0.00 57 1016.6
20260902141133 73 111 9.0 17.0 0.00 0.00 0.00 56 1016.6
20260902140520 74 115 9.0 17.0 0.00 0.00 0.00 55 1016.5
20260902135520 75 119 8.0 15.0 0.00 0.00 0.00 54 1016.3
20260902134131 74 126 9.0 19.0 0.00 0.00 0.00 53 1016.6
20260902133520 74 121 9.0 19.0 0.00 0.00 0.00 54 1016.5
20260902132520 75 118 9.0 20.0 0.00 0.00 0.00 53 1016.5
20260902131133 75 133 8.0 17.0 0.00 0.00 0.00 54 1016.6
20260902130520 74 123 9.0 19.0 0.00 0.00 0.00 54 1016.7
20260902125520 74 131 9.0 15.0 0.00 0.00 0.00 53 1016.7
20260902124132 75 132 9.0 14.0 0.00 0.00 0.00 53 1016.7
20260902123520 75 124 8.0 16.0 0.00 0.00 0.00 52 1017.0
20260902122520 75 129 9.0 15.0 0.00 0.00 0.00 52 1017.1
20260902121133 76 127 8.0 14.0 0.00 0.00 0.00 54 1017.1
20260902120519 75 127 7.0 16.0 0.00 0.00 0.00 54 1017.4
20260902115519 75 102 6.0 17.0 0.00 0.00 0.00 54 1017.3
20260902114133 74 73 9.0 15.0 0.00 0.00 0.00 54 1017.5
20260902113520 73 78 8.0 19.0 0.00 0.00 0.00 54 1017.8
20260902112520 73 85 6.0 14.0 0.00 0.00 0.00 56 1017.9
20260902111133 74 98 7.0 14.0 0.00 0.00 0.00 58 1018.0
20260902110520 72 109 8.0 15.0 0.00 0.00 0.00 61 1018.4
20260902105519 72 100 6.0 13.0 0.00 0.00 0.00 62 1018.6